Home   Weather   Keratsini   Past weeks

Flag for Greece Past Weather in Keratsini, Greece — Yesterday and Last 2 Weeks

Now
57 °F

Clear.


Feels Like: 55 °F
Forecast: 49 / 60 °F
Wind: 12 mph from Northwest

Location: Elefsis Airport

Current Time: Dec 2, 2016 at 8:01:15 pm

Latest Report: Dec 2, 2016 at 7:20 pm


Visibility: 10 mi

Pressure: 29.92 "Hg

Humidity: 51%

Dew Point: 39 °F

Location of KeratsiniLocation

Past Weather in Keratsini — Graph

°F

Keratsini Temperature Yesterday

Maximum temperature yesterday: 50 °F (at 1:50 pm)
Minimum temperature yesterday: 39 °F (at 3:50 am)
Average temperature yesterday: 44 °F

High & Low Weather Summary for the Past Weeks

 TemperatureHumidityPressure
High68 °F (Nov 20, 2:20 pm)94% (Nov 27, 1:20 am)30.33 "Hg (Nov 27, 1:20 am)
Low37 °F (Dec 2, 6:20 am)30% (Dec 1, 1:50 pm)29.74 "Hg (Nov 28, 5:20 pm)
Average54 °F66%30.11 "Hg
* Reported Nov 17 6:20 pm — Dec 2 6:50 pm, Keratsini, Weather by CustomWeather, © 2016

Note: Actual official high and low records may vary slightly from our data, if they occured in-between our weather recording intervals... More about our weather records

Advertising

Keratsini Weather History for the Previous 24 Hours

Scroll right to see more
 ConditionsComfort  
Time TempWeatherWind HumidityBarometerVisibility
6:50 pm
Fri, Dec 2
57 °FClear.12 mph51%29.89 "Hg10 mi
6:20 pm57 °FClear.12 mph51%29.89 "Hg10 mi
5:50 pm57 °FPassing clouds.14 mph48%29.89 "HgN/A
5:20 pm59 °FPassing clouds.14 mph48%29.89 "HgN/A
4:50 pm59 °FPassing clouds.14 mph48%29.89 "HgN/A
4:20 pm61 °FPassing clouds.9 mph36%29.89 "HgN/A
3:50 pm61 °FPassing clouds.9 mph36%29.89 "HgN/A
3:20 pm63 °FPassing clouds.12 mph37%29.89 "HgN/A
2:50 pm63 °FPassing clouds.12 mph37%29.89 "HgN/A
2:20 pm61 °FScattered clouds.13 mph42%29.89 "HgN/A
1:50 pm61 °FScattered clouds.12 mph39%29.92 "HgN/A
1:20 pm61 °FPassing clouds.10 mph39%29.92 "HgN/A
12:50 pm59 °FScattered clouds.6 mph36%29.95 "HgN/A
12:20 pm57 °FScattered clouds.No wind44%29.95 "HgN/A
11:50 am57 °FPartly sunny.No wind41%29.98 "HgN/A
11:20 am55 °FPartly sunny.No wind41%30.01 "HgN/A
10:50 am55 °FPartly sunny.No wind41%30.01 "HgN/A
10:20 am54 °FPartly sunny.No wind44%30.01 "HgN/A
9:20 am48 °FPartly sunny.No wind54%30.01 "HgN/A
8:50 am43 °FScattered clouds.No wind71%30.04 "HgN/A
8:20 am41 °FScattered clouds.No wind70%30.01 "HgN/A
7:50 am37 °FScattered clouds.6 mph75%30.01 "HgN/A
7:20 am39 °FClear.6 mph65%30.01 "Hg10 mi
6:50 am39 °FClear.6 mph65%30.01 "Hg10 mi
6:20 am37 °FPassing clouds.No wind70%30.01 "HgN/A
5:50 am39 °FPassing clouds.No wind65%30.01 "HgN/A
5:20 am39 °FPassing clouds.6 mph65%30.01 "HgN/A
4:50 am39 °FPassing clouds.5 mph65%30.01 "HgN/A
4:20 am43 °FPassing clouds.No wind53%30.01 "HgN/A
3:50 am43 °FPassing clouds.No wind53%30.01 "HgN/A
3:20 am43 °FPassing clouds.6 mph53%30.04 "HgN/A
2:50 am43 °FPassing clouds.5 mph53%30.04 "HgN/A
2:20 am43 °FPassing clouds.8 mph53%30.04 "HgN/A
1:50 am43 °FPassing clouds.No wind53%30.01 "HgN/A
1:20 am43 °FPassing clouds.No wind53%30.04 "HgN/A
12:50 am43 °FPassing clouds.No wind53%30.04 "HgN/A
12:20 am43 °FPassing clouds.No wind53%30.04 "HgN/A
11:50 pm
Thu, Dec 1
43 °FPassing clouds.No wind53%30.04 "HgN/A
11:20 pm43 °FPassing clouds.No wind53%30.04 "HgN/A
10:50 pm43 °FPassing clouds.No wind53%30.04 "HgN/A
10:20 pm43 °FPassing clouds.No wind53%30.04 "HgN/A
9:50 pm41 °FPassing clouds.No wind61%30.04 "HgN/A
9:20 pm41 °FPassing clouds.No wind61%30.04 "HgN/A
8:50 pm41 °FPassing clouds.No wind61%30.04 "HgN/A
8:20 pm43 °FPassing clouds.No wind53%30.07 "HgN/A
Weather by CustomWeather, © 2016

See weather overviewHow to use our weather pages